TimeEST,TemperatureF,Dew PointF,Humidity,Sea Level PressureIn,VisibilityMPH,Wind Direction,Wind SpeedMPH,Gust SpeedMPH,PrecipitationIn,Events,Conditions,WindDirDegrees,DateUTC
12:56 AM,9.0,3.0,77,30.25,10.0,Calm,Calm,-,N/A,,Clear,0,2013-12-17 05:56:00
1:56 AM,5.0,1.9,87,30.27,10.0,Calm,Calm,-,N/A,,Clear,0,2013-12-17 06:56:00
2:56 AM,3.9,1.0,88,30.30,10.0,Calm,Calm,-,N/A,,Clear,0,2013-12-17 07:56:00
3:56 AM,1.0,-2.0,87,30.30,10.0,Calm,Calm,-,N/A,,Clear,0,2013-12-17 08:56:00
4:56 AM,-2.0,-4.0,91,30.30,10.0,Calm,Calm,-,N/A,,Clear,0,2013-12-17 09:56:00
5:56 AM,-2.9,-5.1,90,30.31,10.0,Calm,Calm,-,N/A,,Clear,0,2013-12-17 10:56:00
6:56 AM,-2.9,-6.0,87,30.32,10.0,Calm,Calm,-,N/A,,Clear,0,2013-12-17 11:56:00
7:56 AM,-4.0,-6.0,91,30.30,7.0,Calm,Calm,-,N/A,,Clear,0,2013-12-17 12:56:00
8:56 AM,1.9,-2.0,83,30.32,10.0,Calm,Calm,-,N/A,,Clear,0,2013-12-17 13:56:00
9:56 AM,6.1,-0.0,76,30.32,10.0,Calm,Calm,-,N/A,,Mostly Cloudy,0,2013-12-17 14:56:00
10:56 AM,8.1,-0.0,70,30.29,10.0,Calm,Calm,-,N/A,,Overcast,0,2013-12-17 15:56:00
11:56 AM,12.0,1.9,64,30.26,6.0,NNE,3.5,-,0.00,Snow,Light Snow,20,2013-12-17 16:56:00
12:08 PM,12.2,3.2,67,30.19,2.5,NNE,4.6,-,0.00,Snow,Light Snow,30,2013-12-17 17:08:00
12:17 PM,12.2,3.2,67,30.19,2.5,NNE,3.5,-,0.00,Snow,Light Snow,20,2013-12-17 17:17:00
12:56 PM,12.9,7.0,77,30.23,2.5,NNE,4.6,-,0.00,Snow,Light Snow,30,2013-12-17 17:56:00
1:03 PM,12.2,6.8,79,30.17,0.8,NE,4.6,-,0.01,Snow,Light Snow,40,2013-12-17 18:03:00
1:12 PM,12.2,8.6,85,30.16,1.2,NNE,3.5,-,0.01,Snow,Light Snow,20,2013-12-17 18:12:00
1:22 PM,12.2,8.6,85,30.15,0.5,NNE,5.8,-,0.01,Snow,Snow,30,2013-12-17 18:22:00
1:30 PM,12.2,8.6,85,30.15,1.2,NNE,6.9,-,0.01,Snow,Light Snow,30,2013-12-17 18:30:00
1:56 PM,14.0,8.1,77,30.19,1.2,NNE,5.8,-,0.01,Snow,Light Snow,30,2013-12-17 18:56:00
2:38 PM,14.0,10.4,86,30.10,0.8,North,6.9,-,0.00,Snow,Light Snow,10,2013-12-17 19:38:00
2:56 PM,14.0,10.9,88,30.16,0.5,NNE,3.5,-,0.00,Fog-Snow,Light Snow,20,2013-12-17 19:56:00
3:08 PM,15.8,10.4,79,30.10,0.2,North,4.6,-,0.01,Fog-Snow,Snow,10,2013-12-17 20:08:00
3:33 PM,15.8,10.4,79,30.08,0.5,North,4.6,-,0.03,Fog-Snow,Light Snow,360,2013-12-17 20:33:00
3:43 PM,15.8,12.2,86,30.08,0.2,North,4.6,-,0.04,Fog-Snow,Snow,350,2013-12-17 20:43:00
3:56 PM,15.1,12.0,88,30.13,0.2,North,3.5,-,0.05,Fog-Snow,Snow,350,2013-12-17 20:56:00
4:12 PM,15.8,12.2,86,30.07,0.2,NNW,3.5,-,0.03,Fog-Snow,Snow,330,2013-12-17 21:12:00
4:22 PM,15.8,12.2,86,30.06,0.5,NNW,3.5,-,0.05,Fog-Snow,Snow,340,2013-12-17 21:22:00
4:35 PM,15.8,12.2,86,30.06,0.2,NNW,4.6,-,0.07,Fog-Snow,Snow,330,2013-12-17 21:35:00
4:56 PM,15.1,12.9,91,30.11,0.2,NNW,3.5,-,0.11,Fog-Snow,Heavy Snow,340,2013-12-17 21:56:00
5:04 PM,15.8,12.2,86,30.04,0.2,North,5.8,-,0.00,Fog-Snow,Snow,360,2013-12-17 22:04:00
5:27 PM,15.8,12.2,86,30.04,0.2,North,6.9,-,0.00,Fog-Snow,Heavy Snow,360,2013-12-17 22:27:00
5:35 PM,15.8,12.2,86,30.04,0.2,NNW,6.9,-,0.00,Fog-Snow,Snow,340,2013-12-17 22:35:00
5:42 PM,15.8,12.2,86,30.05,0.5,NNW,4.6,-,0.00,Fog-Snow,Snow,340,2013-12-17 22:42:00
5:56 PM,15.1,12.0,88,30.10,0.2,North,8.1,-,0.00,Fog-Snow,Snow,360,2013-12-17 22:56:00
6:25 PM,15.8,12.2,86,30.04,0.5,North,10.4,-,0.00,Fog-Snow,Snow,360,2013-12-17 23:25:00
6:38 PM,15.8,12.2,86,30.04,0.2,North,10.4,-,0.00,Fog-Snow,Heavy Snow,360,2013-12-17 23:38:00
6:43 PM,14.0,12.2,93,30.03,0.2,North,10.4,-,0.00,Fog-Snow,Heavy Snow,360,2013-12-17 23:43:00
6:56 PM,14.0,10.9,88,30.11,0.5,North,6.9,-,0.00,Fog-Snow,Snow,350,2013-12-17 23:56:00
7:20 PM,14.0,12.2,93,30.04,0.5,North,8.1,-,0.00,Fog-Snow,Snow,360,2013-12-18 00:20:00
7:56 PM,14.0,10.9,88,30.09,0.5,North,9.2,-,0.00,Fog-Snow,Snow,360,2013-12-18 00:56:00
8:56 PM,15.1,12.0,88,30.06,0.5,North,8.1,-,0.00,Fog-Snow,Snow,360,2013-12-18 01:56:00
9:03 PM,15.8,12.2,86,30.00,0.8,North,5.8,-,0.00,Snow,Light Snow,360,2013-12-18 02:03:00
9:33 PM,17.6,14.0,86,29.98,0.8,NNE,10.4,-,0.00,Snow,Light Snow,30,2013-12-18 02:33:00
9:56 PM,18.0,15.1,88,30.03,0.8,North,6.9,-,0.00,Snow,Light Snow,10,2013-12-18 02:56:00
10:03 PM,17.6,15.8,93,29.98,1.5,NNW,8.1,-,0.00,Snow,Light Snow,330,2013-12-18 03:03:00
10:13 PM,17.6,15.8,93,29.99,1.5,NW,10.4,-,0.00,Snow,Light Snow,320,2013-12-18 03:13:00
10:35 PM,17.6,14.0,86,29.99,1.8,NNW,9.2,-,0.00,Snow,Light Snow,330,2013-12-18 03:35:00
10:56 PM,15.1,12.0,88,30.04,1.8,NNW,9.2,-,0.00,Snow,Light Snow,330,2013-12-18 03:56:00
11:06 PM,15.8,10.4,79,29.98,2.5,NNW,8.1,-,0.00,Snow,Light Snow,330,2013-12-18 04:06:00
11:11 PM,15.8,10.4,79,29.97,3.0,NNW,9.2,-,0.00,Snow,Light Snow,340,2013-12-18 04:11:00
11:18 PM,15.8,10.4,79,29.96,3.0,NNW,10.4,-,0.00,Snow,Light Snow,340,2013-12-18 04:18:00
11:56 PM,15.1,10.9,84,30.01,8.0,NNW,6.9,-,0.00,,Overcast,330,2013-12-18 04:56:00